Home > Weather > Wilmington > Past weeks

Flag for USA Past Weather in Wilmington, Delaware, USA — Yesterday and Last 2 Weeks

Now
75 °F

Light rain. Passing clouds.


Feels Like: 74 °F
Forecast: 73 / 83 °F
Wind: 7 mph from East

Location: New Castle County Airport

Current Time: Jul 29, 2016 at 12:12:24 AM

Latest Report: Jul 28, 2016 at 11:51 PM


Visibility: 7 mi

Pressure: 29.84 "Hg

Humidity: 90%

Dew Point: 72 °F

Location of WilmingtonLocation

Past Weather in Wilmington — Graph

°F

Wilmington Temperature Yesterday

Maximum temperature yesterday: 89 °F (at 11:51 AM)
Minimum temperature yesterday: 73 °F (at 4:51 AM)
Average temperature yesterday: 79 °F

High & Low Weather Summary for the Past Weeks

 TemperatureHumidityPressure
High95 °F (Jul 23, 2:51 PM)97% (Jul 14, 7:51 AM)30.22 "Hg (Jul 14, 7:51 AM)
Low67 °F (Jul 21, 5:51 AM)33% (Jul 27, 2:51 PM)29.82 "Hg (Jul 14, 5:51 PM)
Average81 °F68%30.00 "Hg
* Reported Jul 13 10:51 PM — Jul 28 10:51 PM, Wilmington, Weather by CustomWeather, © 2016

Note: Actual official high and low records may vary slightly from our data, if they occured in-between our weather recording intervals... More about our weather records

Advertising

Wilmington Weather History for the Previous 24 Hours

Scroll right to see more
 ConditionsComfort  
Time TempWeatherWind HumidityBarometerVisibility
10:51 PM
Thu, Jul 28
74 °FRain. Fog.5 mph94%29.86 "Hg5 mi
9:51 PM76 °FOvercast.8 mph88%29.88 "Hg10 mi
8:51 PM76 °FPartly sunny.No wind88%29.87 "Hg10 mi
7:51 PM76 °FSunny.5 mph85%29.86 "Hg10 mi
6:51 PM76 °FPartly sunny.7 mph85%29.86 "Hg10 mi
5:51 PM75 °FLight rain. Passing clouds.7 mph90%29.88 "Hg10 mi
4:51 PM74 °FLight rain. Mostly cloudy.9 mph91%29.91 "Hg10 mi
3:51 PM74 °FStrong thunderstorms. Fog.No wind94%29.89 "Hg1 mi
2:51 PM78 °FStrong thunderstorms. Cloudy.9 mph76%29.91 "Hg1 mi
1:51 PM88 °FThundershowers. Passing clouds.21 mph59%29.85 "Hg10 mi
12:51 PM89 °FSunny.9 mph59%29.88 "Hg10 mi
11:51 AM89 °FSunny.9 mph55%29.89 "Hg10 mi
10:51 AM88 °FPassing clouds.6 mph59%29.90 "Hg10 mi
9:51 AM85 °FSunny.7 mph61%29.91 "Hg10 mi
8:51 AM84 °FPartly sunny.No wind67%29.92 "Hg10 mi
7:51 AM80 °FPassing clouds.No wind71%29.91 "Hg10 mi
6:51 AM75 °FPassing clouds.No wind85%29.91 "Hg10 mi
5:51 AM73 °FOvercast.3 mph81%29.90 "Hg10 mi
4:51 AM73 °FClear.5 mph81%29.90 "Hg10 mi
3:51 AM75 °FClear.No wind76%29.91 "Hg10 mi
2:51 AM75 °FPassing clouds.3 mph79%29.91 "Hg10 mi
1:51 AM77 °FPassing clouds.5 mph71%29.91 "Hg10 mi
12:51 AM76 °FClear.No wind77%29.91 "Hg10 mi
Weather by CustomWeather, © 2016

See weather overviewHow to use our weather pages